Date String (YYYY-MM-DD hh:mm:ss) UTC,Instrument flags,absolute air pressure of the measurement (hPa),sample flow rate (lpm),inlet stack bypass flow (lpm),air temperature of the measurement (°C),ambient temperature measured by the external sensor (°C),aerosol sample conditioner tube jacket temperature (°C),OPC LED temperature (°C),internal box temperature (°C),relative humidity of the measurement (%),span deviation,mass concentration of particles derived from Lorenz-Mie calculation of OPC scattering (μg/m³),mass concentration of particles derived from Lorenz-Mie calculation of OPC scattering (μg/m³),mass concentration of particles derived from Lorenz-Mie calculation of OPC scattering (μg/m³)
DateTimeUTC,F1_M11,P_M11,Q1_M11,Q2_M11,T1_M11,T2_M11,T3_M11,T4_M11,T5_M11,U1_M11,ZSPAN_M11,X0_M11,X2_M11,X1_M11
2023-10-03 07:00:00,SystemResetWarning,0827.1,4.99,000.00,028.3,027.2,000.0,036.7,030.1,30.2,0000.0,0005.68,0003.36,0002.67
2023-10-03 07:01:00,SystemResetWarning,0827.1,4.99,000.00,028.3,027.2,000.0,036.7,030.1,30.3,0000.0,0005.86,0003.40,0002.69
2023-10-03 07:02:00,SystemResetWarning,0827.0,5.00,000.00,028.3,027.2,000.0,036.8,030.1,30.3,0000.0,0005.72,0003.36,0002.69
2023-10-03 07:03:00,SystemResetWarning,0827.0,4.99,000.00,028.4,027.2,000.0,036.8,030.1,30.2,0000.0,0005.66,0003.36,0002.69
2023-10-03 07:04:00,SystemResetWarning,0827.1,5.00,000.00,028.4,027.2,000.0,036.8,030.2,30.0,0000.0,0005.95,0003.41,0002.73
2023-10-03 07:05:00,SystemResetWarning,0827.1,5.00,000.00,028.4,027.3,000.0,036.8,030.2,29.9,0000.0,0006.09,0003.43,0002.74
2023-10-03 07:06:00,SystemResetWarning,0827.1,5.00,000.00,028.4,027.3,000.0,036.8,030.2,29.8,0000.0,0006.45,0003.46,0002.74
2023-10-03 07:07:00,SystemResetWarning,0827.1,5.00,000.00,028.5,027.4,000.0,036.8,030.3,29.8,0000.0,0006.34,0003.46,0002.75
2023-10-03 07:08:00,SystemResetWarning,0827.0,5.00,000.00,028.5,027.4,000.0,036.8,030.3,29.8,0000.0,0006.37,0003.44,0002.74
2023-10-03 07:09:00,SystemResetWarning,0827.1,5.00,000.00,028.5,027.4,000.0,036.9,030.3,29.8,0000.0,0006.84,0003.45,0002.73
2023-10-03 07:10:00,SystemResetWarning,0827.1,5.00,000.00,028.5,027.5,000.0,036.9,030.4,29.8,0000.0,0006.93,0003.47,0002.73
2023-10-03 07:11:00,SystemResetWarning,0827.0,5.00,000.00,028.6,027.5,000.0,036.9,030.4,29.8,0000.0,0007.11,0003.50,0002.74
2023-10-03 07:12:00,SystemResetWarning,0827.0,5.00,000.00,028.6,027.5,000.0,036.9,030.4,29.8,0000.0,0007.06,0003.50,0002.75
2023-10-03 07:13:00,SystemResetWarning,0827.1,5.00,000.00,028.6,027.5,000.0,036.9,030.4,29.8,0000.0,0006.99,0003.52,0002.78
2023-10-03 07:14:00,SystemResetWarning,0827.1,5.00,000.00,028.6,027.5,000.0,037.0,030.3,29.8,0000.0,0007.07,0003.55,0002.81
2023-10-03 07:15:00,SystemResetWarning,0827.1,5.00,000.00,028.6,027.4,000.0,037.0,030.3,29.8,0000.0,0006.88,0003.53,0002.82
2023-10-03 07:16:00,SystemResetWarning,0827.1,5.00,000.00,028.6,027.4,000.0,037.0,030.3,29.8,0000.0,0006.77,0003.52,0002.82
2023-10-03 07:17:00,SystemResetWarning,0827.0,5.00,000.00,028.6,027.4,000.0,037.0,030.3,29.8,0000.0,0006.52,0003.52,0002.84
2023-10-03 07:18:00,SystemResetWarning,0827.0,5.00,000.00,028.6,027.4,000.0,037.0,030.3,29.8,0000.0,0006.59,0003.51,0002.87
2023-10-03 07:19:00,SystemResetWarning,0827.1,5.00,000.00,028.6,027.4,000.0,037.0,030.3,29.9,0000.0,0006.73,0003.53,0002.90
2023-10-03 07:20:00,SystemResetWarning,0827.1,5.00,000.00,028.6,027.4,000.0,037.0,030.3,29.9,0000.0,0006.13,0003.53,0002.93
2023-10-03 07:21:00,SystemResetWarning,0827.1,5.00,000.00,028.6,027.5,000.0,037.0,030.3,29.9,0000.0,0006.38,0003.56,0002.96
2023-10-03 07:22:00,SystemResetWarning,0827.1,5.00,000.00,028.6,027.5,000.0,037.0,030.3,29.8,0000.0,0006.43,0003.56,0002.98
2023-10-03 07:23:00,SystemResetWarning,0827.0,5.00,000.00,028.6,027.4,000.0,037.0,030.3,29.8,0000.0,0006.44,0003.57,0003.00
2023-10-03 07:24:00,SystemResetWarning,0827.1,5.01,000.00,028.6,027.4,000.0,037.0,030.3,29.8,0000.0,0006.45,0003.59,0003.02
2023-10-03 07:25:00,SystemResetWarning,0827.0,5.00,000.00,028.6,027.4,000.0,037.1,030.3,29.8,0000.0,0006.65,0003.59,0003.05
2023-10-03 07:26:00,SystemResetWarning,0827.0,5.00,000.00,028.6,027.4,000.0,037.1,030.3,29.8,0000.0,0007.38,0003.57,0003.05
2023-10-03 07:27:00,SystemResetWarning,0827.0,4.99,000.00,028.6,027.4,000.0,037.1,030.3,29.8,0000.0,0007.42,0003.57,0003.06
2023-10-03 07:28:00,SystemResetWarning,0827.0,4.99,000.00,028.6,027.4,000.0,037.1,030.3,29.9,0000.0,0007.48,0003.58,0003.07
2023-10-03 07:29:00,SystemResetWarning,0827.0,5.00,000.00,028.6,027.5,000.0,037.1,030.3,29.8,0000.0,0007.97,0003.61,0003.07
2023-10-03 07:30:00,SystemResetWarning,0826.9,5.01,000.00,028.6,027.5,000.0,037.1,030.3,29.8,0000.0,0007.93,0003.62,0003.07
2023-10-03 07:31:00,SystemResetWarning,0826.9,5.01,000.00,028.6,027.5,000.0,037.1,030.3,29.7,0000.0,0008.12,0003.63,0003.07
2023-10-03 07:32:00,SystemResetWarning,0826.9,5.00,000.00,028.6,027.5,000.0,037.1,030.3,29.7,0000.0,0008.29,0003.64,0003.07
2023-10-03 07:33:00,SystemResetWarning,0826.9,4.99,000.00,028.6,027.5,000.0,037.1,030.3,29.7,0000.0,0008.22,0003.65,0003.09
2023-10-03 07:34:00,SystemResetWarning,0827.0,5.00,000.00,028.6,027.5,000.0,037.1,030.3,29.7,0000.0,0008.19,0003.62,0003.08
2023-10-03 07:35:00,SystemResetWarning,0827.0,5.01,000.00,028.6,027.5,000.0,037.1,030.3,29.7,0000.0,0008.28,0003.61,0003.06
2023-10-03 07:36:00,SystemResetWarning,0826.9,5.00,000.00,028.6,027.5,000.0,037.1,030.3,29.6,0000.0,0008.16,0003.60,0003.04
2023-10-03 07:37:00,SystemResetWarning,0826.9,4.99,000.00,028.6,027.1,000.0,037.1,030.3,29.6,0000.0,0007.73,0003.61,0003.03
2023-10-03 07:38:00,SystemResetWarning,0826.9,4.99,000.00,028.6,025.4,000.0,037.0,030.1,29.6,0000.0,0007.93,0003.68,0003.05
2023-10-03 07:39:00,SystemResetWarning,0826.9,5.00,000.00,028.5,024.2,000.0,037.0,029.9,29.8,0000.0,0007.90,0003.67,0003.06
2023-10-03 07:40:00,SystemResetWarning,0826.9,5.01,000.00,028.4,024.1,000.0,036.9,029.7,30.1,0000.0,0007.34,0003.65,0003.09
2023-10-03 07:41:00,SystemResetWarning,0826.9,5.00,000.00,028.3,024.4,000.0,036.9,029.6,30.3,0000.0,0007.35,0003.66,0003.10
2023-10-03 07:42:00,SystemResetWarning,0826.9,5.00,000.00,028.2,024.8,000.0,036.9,029.6,30.5,0000.0,0007.01,0003.63,0003.10
2023-10-03 07:43:00,SystemResetWarning,0826.9,5.00,000.00,028.2,025.2,000.0,036.8,029.6,30.5,0000.0,0006.32,0003.61,0003.10
2023-10-03 07:44:00,SystemResetWarning,0826.9,5.00,000.00,028.1,025.5,000.0,036.8,029.7,30.5,0000.0,0006.57,0003.63,0003.11
2023-10-03 07:45:00,SystemResetWarning,0826.8,5.00,000.00,028.1,025.8,000.0,036.8,029.7,30.5,0000.0,0006.68,0003.66,0003.11
2023-10-03 07:46:00,SystemResetWarning,0826.9,5.00,000.00,028.1,026.0,000.0,036.7,029.7,30.5,0000.0,0006.78,0003.68,0003.12
2023-10-03 07:47:00,SystemResetWarning,0826.9,5.00,000.00,028.1,026.2,000.0,036.7,029.8,30.4,0000.0,0006.76,0003.68,0003.13
2023-10-03 07:48:00,SystemResetWarning,0826.9,5.00,000.00,028.1,026.4,000.0,036.7,029.8,30.4,0000.0,0007.13,0003.71,0003.14
2023-10-03 07:49:00,SystemResetWarning,0826.9,5.00,000.00,028.2,026.5,000.0,036.7,029.9,30.4,0000.0,0006.99,0003.71,0003.15
2023-10-03 07:50:00,SystemResetWarning,0826.9,5.01,000.00,028.2,026.7,000.0,036.7,029.9,30.3,0000.0,0007.06,0003.75,0003.16
2023-10-03 07:51:00,SystemResetWarning,0826.9,5.01,000.00,028.2,026.8,000.0,036.7,029.9,30.3,0000.0,0007.26,0003.75,0003.15
2023-10-03 07:52:00,SystemResetWarning,0826.9,5.00,000.00,028.2,026.8,000.0,036.7,029.9,30.3,0000.0,0007.47,0003.78,0003.14
2023-10-03 07:53:00,SystemResetWarning,0826.9,5.00,000.00,028.2,026.9,000.0,036.7,030.0,30.2,0000.0,0007.62,0003.83,0003.15
2023-10-03 07:54:00,SystemResetWarning,0827.0,5.00,000.00,028.2,027.0,000.0,036.7,030.0,30.0,0000.0,0007.86,0003.87,0003.16
2023-10-03 07:55:00,SystemResetWarning,0827.0,4.99,000.00,028.3,027.0,000.0,036.7,030.0,29.8,0000.0,0007.91,0003.87,0003.16
2023-10-03 07:56:00,SystemResetWarning,0827.0,4.99,000.00,028.3,027.1,000.0,036.7,030.1,29.7,0000.0,0007.78,0003.83,0003.15
2023-10-03 07:57:00,SystemResetWarning,0827.0,5.01,000.00,028.3,027.2,000.0,036.7,030.1,29.7,0000.0,0007.69,0003.81,0003.15
2023-10-03 07:58:00,SystemResetWarning,0827.0,5.01,000.00,028.4,027.2,000.0,036.7,030.1,29.8,0000.0,0007.71,0003.81,0003.14
2023-10-03 07:59:00,SystemResetWarning,0827.0,4.99,000.00,028.4,027.2,000.0,036.7,030.2,29.8,0000.0,0007.58,0003.80,0003.14
